Regional Weather Roundup
Issued by NWS

Home | Current Version | Previous Version | Text Only | Print | Product List | Glossary On
Versions: 1 2 3 4 5 6 7 8 9 10 11 12 13 14 15 16 17 18 19 20 21 22 23 24 25 26 27 28 29 30 31 32 33 34 35 36 37 38 39 40 41 42 43 44 45 46 47 48 49 50
000
ASUS43 KOAX 311710
RWRNE

WEATHER ROUNDUP FOR NEBRASKA
NATIONAL WEATHER SERVICE OMAHA NE
1100 AM CST SAT JAN 31 2015

NOTES: SATELLITE DATA IS BEING USED TO AUGMENT CLOUD COVER ABOVE
       12000 FEET.
       "FAIR" INDICATES FEW OR NO CLOUDS BELOW 12,000 FEET WITH NO
       SIGNIFICANT WEATHER AND/OR OBSTRUCTIONS TO VISIBILITY.

  * THESE STATIONS DO NOT REPORT WEATHER SUCH AS RAIN...SNOW OR FOG.

NEZ001>004-019>022-054>056-311800-
NEBRASKA PANHANDLE

CITY           SKY/WX    TMP DP  RH WIND       PRES   REMARKS
SCOTTSBLUFF    LGT SNOW  33  29  85 NE3       29.93F FOG
ALLIANCE       LGT SNOW  31  28  89 N8        29.92F FOG     WCI  23
CHADRON        CLOUDY    30  25  81 NE5       29.97F WCI  25
KIMBALL        LGT SNOW  32  30  93 N7        29.87F WCI  25
SIDNEY         LGT SNOW  33  31  92 N6        29.91F FOG     WCI  28
$$

NEZ057>060-069>072-079>082-311800-
SOUTHWEST NEBRASKA

CITY           SKY/WX    TMP DP  RH WIND       PRES   REMARKS
NORTH PLATTE   CLOUDY    34  31  88 SE7       29.96F WCI  28
IMPERIAL       FOG       33  32  96 E6        29.92S VSB 1/4 WCI  28
LEXINGTON      CLOUDY    33  33  96 SE8       29.98F FOG     WCI  27
MCCOOK         FOG       35  33  92 SE6       29.95F VSB 3/4 WCI  30
OGALLALA       FOG       33  33  99 E5        29.92F VSB 1/2 WCI  29
$$

NEZ005>010-023>029-035>040-094-311800-
NORTH CENTRAL NEBRASKA

CITY           SKY/WX    TMP DP  RH WIND       PRES   REMARKS
VALENTINE      FOG       26  25  96 NE13      30.02S VSB 3/4 WCI  15
AINSWORTH      CLOUDY    29  27  92 NE12      30.01S WCI  20
BROKEN BOW     CLOUDY    34  31  88 S9        29.98F WCI  27
O`NEILL        CLOUDY    31  29  94 NE9       30.04S WCI  23
ORD            CLOUDY    35  30  82 SE6       30.01S WCI  30
THEDFORD       LGT SNOW  34  33  98 CALM      29.96F VSB 3/4
$$

NEZ041-046>049-061>064-073>077-083>087-311800-
SOUTH CENTRAL NEBRASKA

CITY           SKY/WX    TMP DP  RH WIND       PRES   REMARKS
GRAND ISLAND   LGT SNOW  33  31  92 S9        30.05F FOG     WCI  25
AURORA         LGT SNOW  33  33 100 S12       30.06S WCI  24
HASTINGS       LGT SNOW  33  31  92 S9        30.03F VSB 1   WCI  25
HEBRON         LGT SNOW  33  32  95 S12       30.09F VSB 1   WCI  24
HOLDREGE       CLOUDY    32  32  98 SE8       29.99F FOG     WCI  25
KEARNEY *      CLOUDY    34  30  86 S9        30.02R WCI  26
YORK           LGT SNOW  32  32 100 S10       30.08F VSB 1   WCI  24
$$

NEZ011>018-030>034-042>045-311800-
NORTHEAST NEBRASKA

CITY           SKY/WX    TMP DP  RH WIND       PRES   REMARKS
NORFOLK        CLOUDY    36  33  89 S7        30.06F WCI  30
ALBION         CLOUDY    35  31  87 S7        30.07R WCI  29
BLAIR          LGT SNOW  35  32  91 S10       30.12S WCI  27
COLUMBUS *     CLOUDY    36  28  75 S15       30.10S WCI  26
FREMONT        RAIN      36  34  94 S8        30.13S WCI  29
TEKAMAH        CLOUDY    38  33  82 S12       30.13S WCI  30
WAYNE          CLOUDY    37  34  88 S10       30.08F WCI  30
$$

NEZ050>053-065>068-078-088>093-311800-
SOUTHEAST NEBRASKA

CITY           SKY/WX    TMP DP  RH WIND       PRES   REMARKS
LINCOLN        LGT SNOW  33  32  96 S9        30.13F FOG     WCI  25
OMAHA EPPLEY   LGT SNOW  34  33  96 S10       30.15S FOG     WCI  26
BEATRICE       MIX PCPN  33  32  97 SE12      30.12F WCI  24
FALLS CITY     RAIN      36  34  92 SE6       30.19S FOG     WCI  31
NEBRASKA CITY  LGT RAIN  34  34 100 S14       30.16S WCI  25
PLATTSMOUTH    LGT SNOW  34  32  94 S12       30.15F WCI  25
$$

NEZ044-045-051>053-067-311800-
OMAHA AREA

CITY           SKY/WX    TMP DP  RH WIND       PRES   REMARKS
OMAHA EPPLEY   LGT SNOW  34  33  96 S10       30.15S FOG     WCI  26
BLAIR          LGT SNOW  35  32  91 S10       30.12S WCI  27
FREMONT        RAIN      36  34  94 S8        30.13S WCI  29
MILLARD        LGT SNOW  35  33  93 SE6       30.15S WCI  30
OFFUTT AFB     FLURRIES  36  34  93 S8        30.15S WCI  29
PLATTSMOUTH    LGT SNOW  34  32  94 S12       30.15F WCI  25
WAHOO          LGT SNOW  33  32  94 S7        30.13S WCI  27
$$


USA.gov is the U.S. government's official web portal to all federal, state and local government web resources and services.